[[{"header":{"parameterUnit":"m.s-1","parameterCategory":1,"la1":30.2991,"la2":30.254,"lo1":-89.0895,"lo2":-89.0444,"dy":0.0017,"dx":0.0017,"nx":28,"ny":28,"refTime":"2025-11-17T09:00:00:Z","depth":0,"parameterNumber":2,"parameterNumberName":"U-component_of_WINDS"},"data":[0,0,0,0,0,0,0,0,0,0,0,0,0,0,0,0,0,0,0,0,0,0,0,0,0,0,0,0,0,0,0,0,0,0,0,0,0,0,0,0,0,0,0,0,0,0,0,0,0,0,0,0,0,0,0,0,0,0,-1.1972,-1.1972,0,-1.1984,-1.1984,-1.1984,-1.1972,-1.1972,-1.1971,-1.1971,-1.1984,-1.1985,-1.1986,0,0,0,0,0,0,0,0,0,0,0,0,0,-1.1941,-1.1942,-1.1972,-1.1972,-1.1972,-1.1984,-1.1984,-1.1984,-1.1972,-1.1972,-1.1971,-1.1971,-1.1984,-1.1985,-1.1986,0,0,0,0,0,0,0,0,0,0,0,0,0,-1.1954,-1.1942,-1.1972,-1.1968,-1.1967,-1.1984,-1.1984,-1.1984,-1.1972,-1.1972,-1.1971,-1.197,-1.1983,-1.1985,-1.1986,-1.2007,0,0,-1.1989,-1.199,0,0,0,0,0,0,0,0,-1.1953,-1.1955,-1.1968,-1.1968,-1.1968,-1.1976,-1.1978,-1.1992,-1.1973,-1.1971,-1.1971,-1.197,-1.1982,-1.1983,-1.1987,-1.2008,-1.2009,-1.199,-1.199,-1.1991,-1.1991,0,0,0,0,0,0,0,-1.1952,-1.1954,-1.1977,-1.1968,-1.1968,-1.1966,-1.1967,-1.1981,-1.198,-1.1971,-1.197,-1.1971,-1.1982,-1.1986,-1.1987,-1.2009,-1.199,-1.1991,-1.1991,-1.1992,-1.205,-1.2051,0,0,0,0,0,0,-1.1952,-1.1954,-1.1976,-1.1977,-1.1959,-1.1967,-1.1968,-1.1974,-1.198,-1.198,-1.1972,-1.1971,-1.1984,-1.1986,-1.1988,-1.2014,-1.1991,-1.1992,-1.1993,-1.2049,-1.205,-1.2051,0,0,0,0,0,0,-1.1951,-1.1954,-1.1976,-1.1965,-1.1968,-1.1968,-1.1975,-1.1975,-1.1979,-1.1981,-1.1981,-1.1976,-1.1984,-1.1986,-1.2003,-1.2014,-1.1992,-1.1994,-1.2048,-1.2049,-1.2051,-1.2066,0,0,0,0,0,0,-1.195,-1.1954,-1.1961,-1.1966,-1.1969,-1.199,-1.1976,-1.1975,-1.1981,-1.1979,-1.1985,-1.1985,-1.1983,-1.2001,-1.2004,-1.2015,-1.1994,-1.2047,-1.2049,-1.205,-1.2064,-1.2067,-1.207,0,0,0,0,0,-1.1949,-1.1965,-1.1961,-1.1964,-1.1978,-1.1991,-1.1992,-1.199,-1.1982,-1.199,-1.1992,-1.1985,-1.2013,-1.2003,-1.2006,-1.2018,-1.2046,-1.2048,-1.205,-1.2063,-1.2067,-1.207,0,0,0,0,0,0,-1.1961,-1.1965,-1.1961,-1.1979,-1.1985,-1.1989,-1.1998,-1.1994,-1.2002,-1.2,-1.1997,-1.1999,-1.2017,-1.2019,-1.2008,-1.204,-1.2028,-1.2031,-1.2037,-1.2041,-1.2044,-1.2042,-1.1995,0,0,0,0,0,-1.1966,-1.1976,-1.1979,-1.1994,-1.1997,-1.1997,-1.2003,-1.2001,-1.2007,-1.2009,-1.2012,-1.2018,-1.2028,-1.2035,-1.2045,-1.2066,-1.2067,-1.2075,-1.2078,-1.2081,-1.2082,-1.2095,-1.2099,-1.2057,-1.2057,-1.2057,0,0,-1.1976,-1.1979,-1.1985,-1.1997,-1.2001,-1.2011,-1.1999,-1.2011,-1.2019,-1.2011,-1.2026,-1.2029,-1.2036,-1.2056,-1.2064,-1.2058,-1.2095,-1.2083,-1.2085,-1.2085,-1.2097,-1.2101,-1.2104,-1.2058,-1.2058,-1.2058,0,0,-1.1998,-1.2002,-1.2015,-1.202,-1.2027,-1.2027,-1.2031,-1.2036,-1.2037,-1.2053,-1.2048,-1.2058,-1.2076,-1.2081,-1.2086,-1.2115,-1.2109,-1.2118,-1.2132,-1.2144,-1.2148,-1.2151,-1.216,-1.2164,-1.212,-1.212,-1.212,0,-1.2009,-1.2024,-1.2023,-1.2035,-1.204,-1.2034,-1.2048,-1.2053,-1.2063,-1.2067,-1.2061,-1.2084,-1.2088,-1.2109,-1.2116,-1.2121,-1.2125,-1.2116,-1.2147,-1.215,-1.2153,-1.2162,-1.2166,-1.2121,-1.2121,-1.2121,-1.2121,0,-1.2038,-1.2049,-1.2059,-1.2068,-1.2076,-1.2089,-1.209,-1.2097,-1.2096,-1.2097,-1.2115,-1.212,-1.2131,-1.2136,-1.2134,-1.2158,-1.2154,-1.2148,-1.2135,-1.2158,-1.2167,-1.217,-1.2123,-1.2122,-1.2122,-1.2122,0,0,-1.2066,-1.2076,-1.2079,-1.2084,-1.2092,-1.2101,-1.2115,-1.2126,-1.2133,-1.2141,-1.2152,-1.2169,-1.2164,-1.217,-1.2169,-1.218,-1.2202,-1.2172,-1.2172,-1.2177,-1.2228,-1.2231,-1.2236,-1.2199,-1.22,-1.2201,-1.2227,0,-1.2088,-1.2111,-1.2111,-1.2132,-1.2143,-1.2139,-1.2151,-1.2158,-1.2161,-1.2171,-1.2175,-1.2186,-1.2179,-1.2183,-1.2193,-1.2197,-1.2212,-1.2195,-1.221,-1.2211,-1.2207,-1.224,-1.2243,-1.2268,-1.2231,-1.2231,-1.2232,0,-1.2117,-1.2126,-1.2148,-1.2156,-1.2161,-1.2171,-1.2182,-1.2192,-1.2201,-1.2202,-1.221,-1.2208,-1.2224,-1.2213,-1.2235,-1.2223,-1.223,-1.2233,-1.2234,-1.2234,-1.2221,-1.224,-1.2276,-1.2279,-1.2237,-1.2237,-1.2236,0,-1.2134,-1.2152,-1.2168,-1.2172,-1.2182,-1.219,-1.2195,-1.2203,-1.221,-1.222,-1.2225,-1.2237,-1.2243,-1.2253,-1.2255,-1.2247,-1.2277,-1.2266,-1.2279,-1.2279,-1.2283,-1.2283,-1.232,-1.229,-1.229,-1.229,-1.229,0,-1.2158,-1.2172,-1.2176,-1.2185,-1.2202,-1.2203,-1.2219,-1.2223,-1.2231,-1.2242,-1.224,-1.2251,-1.2254,-1.2266,-1.2268,-1.2285,-1.2289,-1.229,-1.229,-1.229,-1.2289,-1.2293,-1.2291,-1.2291,-1.2291,-1.2291,-1.2291,0,-1.2179,-1.2182,-1.2199,-1.2208,-1.2211,-1.2222,-1.223,-1.224,-1.2244,-1.2258,-1.2262,-1.2268,-1.2281,-1.2285,-1.2302,-1.2304,-1.2324,-1.2323,-1.2321,-1.232,-1.2333,-1.2331,-1.2372,-1.2377,-1.2345,-1.2345,-1.2346,0,-1.2193,-1.2204,-1.2214,-1.2222,-1.2227,-1.2238,-1.2246,-1.2249,-1.2257,-1.2269,-1.2278,-1.2292,-1.2302,-1.2325,-1.2331,-1.2345,-1.2343,-1.2357,-1.2345,-1.2345,-1.2343,-1.2342,-1.2343,-1.2358,-1.2359,-1.2359,-1.2359,0,-1.2218,-1.222,-1.2231,-1.2242,-1.2252,-1.2261,-1.227,-1.2277,-1.2281,-1.229,-1.2305,-1.2313,-1.2331,-1.2345,-1.2359,-1.2365,-1.2363,-1.2364,-1.2367,-1.2365,-1.2363,-1.2364,-1.2326,-1.2362,-1.2362,-1.2361,-1.2361,-1.2361,-1.2236,-1.2245,-1.2254,-1.2267,-1.2274,-1.2283,-1.2293,-1.2299,-1.2311,-1.2325,-1.2327,-1.2342,-1.2353,-1.2371,-1.2378,-1.2391,-1.2387,-1.2392,-1.2393,-1.2394,-1.2395,-1.2363,-1.2394,-1.2394,-1.2394,-1.2394,-1.2394,0,-1.226,-1.2266,-1.2278,-1.2291,-1.2301,-1.23,-1.231,-1.2319,-1.2333,-1.2343,-1.2354,-1.2371,-1.2385,-1.2394,-1.2408,-1.2417,-1.2417,-1.2421,-1.2419,-1.2421,-1.2398,-1.2393,-1.2421,-1.2421,-1.2421,-1.2421,-1.2421,-1.2421,-1.2274,-1.229,-1.2293,-1.2314,-1.232,-1.2335,-1.2341,-1.235,-1.2359,-1.2378,-1.2389,-1.2395,-1.2405,-1.2421,-1.2434,-1.2436,-1.2441,-1.2446,-1.2447,-1.2425,-1.2422,-1.242,-1.2415,-1.2447,-1.2447,-1.2469,-1.2469,-1.247]},{"header":{"parameterUnit":"m.s-1","parameterCategory":1,"la1":30.2991,"la2":30.254,"lo1":-89.0895,"lo2":-89.0444,"dy":0.0017,"dx":0.0017,"nx":28,"ny":28,"refTime":"2025-11-17T09:00:00:Z","depth":0,"parameterNumber":3,"parameterNumberName":"V-component_of_WINDS"},"data":[0,0,0,0,0,0,0,0,0,0,0,0,0,0,0,0,0,0,0,0,0,0,0,0,0,0,0,0,0,0,0,0,0,0,0,0,0,0,0,0,0,0,0,0,0,0,0,0,0,0,0,0,0,0,0,0,0,0,0.8584,0.8584,0,0.8582,0.8582,0.8582,0.8617,0.8618,0.8619,0.862,0.8617,0.8616,0.8615,0,0,0,0,0,0,0,0,0,0,0,0,0,0.8616,0.8615,0.8584,0.8584,0.8584,0.8582,0.8582,0.8582,0.8617,0.8618,0.862,0.8621,0.8618,0.8616,0.8615,0,0,0,0,0,0,0,0,0,0,0,0,0,0.8607,0.8615,0.8584,0.8601,0.8603,0.8582,0.8582,0.8582,0.8617,0.8619,0.862,0.8621,0.8618,0.8617,0.8615,0.8578,0,0,0.8611,0.861,0,0,0,0,0,0,0,0,0.8607,0.8605,0.8599,0.86,0.8602,0.8602,0.8593,0.8581,0.8617,0.8612,0.862,0.8622,0.8611,0.861,0.8607,0.8578,0.8578,0.8611,0.861,0.8609,0.8609,0,0,0,0,0,0,0,0.8608,0.8606,0.8583,0.8598,0.86,0.8609,0.8609,0.859,0.8603,0.8612,0.8615,0.8614,0.8612,0.8608,0.8607,0.8578,0.8611,0.8609,0.8609,0.8608,0.8519,0.8518,0,0,0,0,0,0,0.8606,0.8606,0.8583,0.8583,0.8608,0.8607,0.8607,0.86,0.8603,0.8605,0.8613,0.8616,0.861,0.8608,0.8607,0.8564,0.8609,0.8608,0.8607,0.8521,0.8519,0.8517,0,0,0,0,0,0,0.8607,0.8604,0.8583,0.8595,0.8593,0.8605,0.8597,0.8599,0.8595,0.8604,0.8606,0.8607,0.8611,0.8609,0.8585,0.8565,0.8607,0.8606,0.8522,0.852,0.8518,0.8479,0,0,0,0,0,0,0.8607,0.8604,0.859,0.8595,0.8593,0.8562,0.8595,0.8598,0.8593,0.8597,0.8599,0.8601,0.8612,0.8587,0.8584,0.8564,0.8605,0.8524,0.8521,0.8519,0.8482,0.8475,0.847,0,0,0,0,0,0.8608,0.8578,0.8589,0.8586,0.8576,0.8561,0.8559,0.8573,0.8591,0.8577,0.8583,0.86,0.8567,0.8584,0.8581,0.856,0.8526,0.8522,0.8519,0.8484,0.8477,0.847,0,0,0,0,0,0,0.857,0.8579,0.8591,0.8562,0.856,0.8567,0.855,0.8564,0.8557,0.8561,0.8578,0.8578,0.8552,0.8553,0.8572,0.8525,0.855,0.8545,0.8525,0.8517,0.8511,0.8512,0.8604,0,0,0,0,0,0.8558,0.8546,0.8554,0.8527,0.8526,0.8538,0.8532,0.8543,0.8542,0.8541,0.8545,0.8543,0.8532,0.8525,0.8515,0.8482,0.8483,0.8466,0.846,0.8455,0.8451,0.8435,0.8427,0.8506,0.8506,0.8506,0,0,0.8534,0.8537,0.8528,0.852,0.852,0.8507,0.8537,0.8521,0.8512,0.8538,0.8517,0.8519,0.8518,0.849,0.8478,0.849,0.843,0.845,0.8446,0.8446,0.843,0.8423,0.8416,0.8504,0.8504,0.8505,0,0,0.8482,0.8483,0.8462,0.8461,0.8461,0.8469,0.8464,0.8468,0.8471,0.845,0.847,0.8458,0.8439,0.8438,0.8435,0.8383,0.8399,0.8379,0.8348,0.8332,0.8326,0.8321,0.8303,0.8297,0.8376,0.8376,0.8376,0,0.8451,0.8433,0.8448,0.8432,0.8428,0.8452,0.8431,0.8429,0.8426,0.8422,0.8437,0.8414,0.8415,0.8387,0.8374,0.8371,0.8365,0.838,0.8326,0.832,0.8316,0.8299,0.8292,0.8373,0.8374,0.8374,0.8374,0,0.8395,0.8382,0.8364,0.8362,0.8355,0.8336,0.8349,0.8341,0.8352,0.8359,0.8337,0.8339,0.833,0.8324,0.8335,0.8298,0.8306,0.8323,0.8348,0.8305,0.829,0.8284,0.837,0.8371,0.8372,0.8372,0,0,0.832,0.8327,0.832,0.832,0.8321,0.8311,0.8293,0.8286,0.8279,0.8275,0.8261,0.8244,0.826,0.8256,0.8267,0.8252,0.8213,0.8271,0.8271,0.8261,0.8174,0.8162,0.8154,0.8223,0.8222,0.8221,0.8174,0,0.8271,0.8241,0.8255,0.8224,0.8212,0.8235,0.8219,0.8219,0.8224,0.8215,0.8221,0.8209,0.823,0.8228,0.8215,0.822,0.8196,0.8224,0.821,0.821,0.8211,0.8146,0.8134,0.8089,0.8168,0.8167,0.8166,0,0.821,0.8206,0.8173,0.8178,0.8174,0.8159,0.8154,0.8145,0.8144,0.8149,0.8146,0.816,0.8142,0.8167,0.8144,0.8163,0.8158,0.816,0.8158,0.8158,0.8186,0.8146,0.8075,0.8069,0.8157,0.8158,0.8158,0,0.816,0.8145,0.8124,0.8123,0.8128,0.8118,0.8119,0.812,0.8115,0.811,0.8107,0.81,0.8096,0.809,0.8102,0.8119,0.8077,0.8103,0.8081,0.8081,0.8072,0.8073,0.8001,0.8067,0.8067,0.8067,0.8067,0,0.8105,0.8084,0.8102,0.8089,0.8067,0.8083,0.8061,0.8064,0.8065,0.8054,0.8072,0.8061,0.8077,0.8067,0.8076,0.8055,0.8053,0.8057,0.806,0.8056,0.8056,0.8054,0.8057,0.8065,0.8066,0.8066,0.8066,0,0.8045,0.8056,0.8035,0.8042,0.8043,0.8026,0.8032,0.802,0.8027,0.8012,0.801,0.802,0.801,0.8021,0.801,0.8016,0.7989,0.7996,0.799,0.7992,0.797,0.7973,0.7896,0.7887,0.7957,0.7957,0.7956,0,0.801,0.7995,0.8,0.7994,0.7994,0.7984,0.7979,0.7994,0.7988,0.7987,0.7976,0.7967,0.7961,0.7942,0.7949,0.7941,0.7949,0.7922,0.7948,0.7945,0.795,0.7951,0.795,0.7917,0.7917,0.7916,0.7915,0,0.7946,0.7952,0.7945,0.7939,0.7933,0.793,0.7927,0.7921,0.7937,0.7929,0.7919,0.7914,0.7904,0.7895,0.7889,0.7891,0.7906,0.7907,0.7902,0.7898,0.7896,0.7898,0.7977,0.7909,0.791,0.791,0.7911,0.7911,0.7898,0.7886,0.7888,0.788,0.788,0.7877,0.7867,0.7873,0.7865,0.7858,0.7867,0.7855,0.7855,0.7849,0.7849,0.7839,0.785,0.7843,0.7841,0.7839,0.7836,0.7897,0.7838,0.7838,0.7838,0.7839,0.7839,0,0.7836,0.7839,0.7831,0.7827,0.7821,0.7835,0.7834,0.7827,0.7816,0.7815,0.7809,0.7798,0.7789,0.7795,0.7788,0.7779,0.7786,0.7777,0.7778,0.7778,0.7826,0.7832,0.7771,0.7771,0.7771,0.7771,0.7771,0.7771,0.7803,0.7784,0.7791,0.7772,0.7775,0.7763,0.7761,0.7759,0.7759,0.7745,0.7739,0.7743,0.7745,0.7738,0.7731,0.7733,0.773,0.7719,0.7723,0.7768,0.7775,0.7781,0.7787,0.7718,0.7718,0.7676,0.7676,0.7676]}]]